contact:dominique.lefevre@mio.osupytheas.fr, maurice.libes@osupytheas.fr, didier.mallarino@osupytheas.fr
Project:EMSO http://www.emso-fr.org/EMSO-France
Depth: 2436.0 m
Title:EMSO Ligure Ouest : Data MII capteur AQUADOPP
Date,Latitude,Longitude,X_East,Y_North,Z_Up,Amplitude_X,Amplitude_Y,Amplitude_Z,Batterie,SoundSpeed,Heading,Pitch,Roll,Pressure,TIS,Speed,Direction
, degrees North, degrees East, m.s-1, m.s-1,m.s-1, 1, 1, 1, Volt, m.s-1, degree, degree, degree, dbar, degree_C, m.s-1, degree
2019-09-29T00:04:05,42.805,6.029,0.0,0.02,-0.028,100.0,106.0,98.0,13.4,1505.1,322.7,-0.8,1.8,2470.521,13.27,0.02,0.0
2019-09-29T00:07:06,42.805,6.029,-0.031,0.019,-0.05,100.0,106.0,97.0,13.4,1505.2,326.1,-0.7,1.8,2470.397,13.29,0.036,301.5
2019-09-29T00:10:07,42.805,6.029,-0.037,0.013,-0.034,100.0,106.0,97.0,13.4,1505.3,328.1,-0.7,1.9,2470.23,13.31,0.039,289.4
2019-09-29T00:13:08,42.805,6.029,-0.016,0.026,-0.047,99.0,107.0,98.0,13.4,1505.3,324.4,-0.7,1.8,2470.104,13.32,0.03,328.4
2019-09-29T00:16:09,42.805,6.029,-0.006,0.024,-0.025,99.0,107.0,97.0,13.4,1505.3,325.9,-0.7,1.8,2469.987,13.32,0.024,346.0
2019-09-29T00:19:10,42.805,6.029,-0.037,0.009,-0.038,100.0,107.0,97.0,13.4,1505.3,324.2,-0.7,1.8,2469.895,13.33,0.038,283.7
2019-09-29T00:22:11,42.805,6.029,0.0,0.018,-0.035,99.0,108.0,96.0,13.4,1505.3,328.8,-0.7,1.8,2469.907,13.33,0.018,0.0
2019-09-29T00:25:12,42.805,6.029,-0.029,0.014,-0.037,98.0,107.0,98.0,13.3,1505.3,323.5,-0.7,1.8,2469.866,13.33,0.032,295.8
2019-09-29T00:28:13,42.805,6.029,-0.029,0.01,-0.041,99.0,108.0,98.0,13.3,1505.4,324.6,-0.7,1.8,2469.79,13.34,0.03,289.0
2019-09-29T00:31:14,42.805,6.029,-0.028,0.015,-0.062,100.0,108.0,97.0,13.4,1505.4,324.4,-0.7,1.8,2469.822,13.34,0.031,298.2
2019-09-29T00:34:15,42.805,6.029,-0.015,0.01,-0.069,100.0,107.0,98.0,13.4,1505.4,324.3,-0.7,1.8,2469.803,13.34,0.018,303.7
2019-09-29T00:37:16,42.805,6.029,-0.014,0.019,-0.045,99.0,107.0,97.0,13.3,1505.4,324.9,-0.7,1.9,2469.812,13.34,0.023,323.6
2019-09-29T00:40:17,42.805,6.029,-0.049,0.009,-0.105,100.0,107.0,97.0,13.4,1505.4,328.3,-0.7,1.8,2469.799,13.34,0.049,280.4
2019-09-29T00:43:18,42.805,6.029,-0.03,0.014,-0.029,100.0,107.0,97.0,13.4,1505.4,324.6,-0.7,1.8,2469.821,13.34,0.033,295.0
2019-09-29T00:46:19,42.805,6.029,0.006,0.016,-0.026,99.0,107.0,97.0,13.4,1505.4,324.4,-0.7,1.8,2469.778,13.34,0.017,20.6
2019-09-29T00:49:20,42.805,6.029,-0.019,0.009,-0.06,101.0,106.0,97.0,13.4,1505.4,325.2,-0.7,1.8,2469.788,13.34,0.021,295.3
2019-09-29T00:52:21,42.805,6.029,-0.03,0.026,-0.017,100.0,107.0,98.0,13.4,1505.4,327.3,-0.7,1.9,2469.79,13.34,0.039,310.9
2019-09-29T00:55:22,42.805,6.029,-0.012,0.007,-0.031,99.0,107.0,98.0,13.3,1505.4,326.2,-0.7,1.8,2469.767,13.34,0.013,300.3
2019-09-29T00:58:23,42.805,6.029,-0.038,0.024,-0.039,99.0,107.0,97.0,13.4,1505.4,324.0,-0.7,1.8,2469.849,13.34,0.044,302.3
2019-09-29T01:01:24,42.805,6.029,-0.021,0.025,-0.007,99.0,108.0,98.0,13.3,1505.4,323.4,-0.7,1.8,2469.803,13.34,0.032,320.0
2019-09-29T01:04:25,42.805,6.029,0.003,0.02,-0.02,99.0,108.0,98.0,13.4,1505.4,326.1,-0.7,1.9,2469.813,13.34,0.02,8.5
2019-09-29T01:07:26,42.805,6.029,-0.016,0.004,-0.061,99.0,107.0,98.0,13.4,1505.4,326.3,-0.7,1.8,2469.82,13.34,0.016,284.0
2019-09-29T01:10:27,42.805,6.029,-0.012,0.017,0.001,99.0,108.0,97.0,13.4,1505.4,325.8,-0.7,1.8,2469.837,13.34,0.02,324.8
2019-09-29T01:13:28,42.805,6.029,-0.035,0.029,-0.042,100.0,106.0,96.0,13.3,1505.4,328.1,-0.7,1.8,2469.819,13.34,0.045,309.6
2019-09-29T01:16:29,42.805,6.029,0.01,0.006,-0.017,100.0,107.0,97.0,13.4,1505.4,328.0,-0.7,1.8,2469.812,13.34,0.011,59.0
2019-09-29T01:19:30,42.805,6.029,-0.005,0.03,-0.028,100.0,107.0,97.0,13.4,1505.4,327.7,-0.7,1.8,2469.845,13.34,0.03,350.5
2019-09-29T01:22:31,42.805,6.029,-0.003,0.012,-0.008,100.0,108.0,97.0,13.4,1505.4,325.0,-0.7,1.8,2469.824,13.34,0.012,346.0
2019-09-29T01:25:32,42.805,6.029,0.018,0.003,-0.008,99.0,107.0,98.0,13.4,1505.4,324.6,-0.7,1.8,2469.844,13.34,0.018,80.5
2019-09-29T01:28:33,42.805,6.029,-0.016,0.028,-0.041,100.0,107.0,98.0,13.4,1505.4,327.3,-0.7,1.8,2469.823,13.34,0.032,330.3
2019-09-29T01:31:34,42.805,6.029,-0.007,0.014,0.012,102.0,107.0,97.0,13.4,1505.4,323.8,-0.7,1.8,2469.812,13.34,0.015,333.4
2019-09-29T01:34:35,42.805,6.029,-0.006,0.012,0.009,100.0,105.0,97.0,13.3,1505.4,326.8,-0.7,1.8,2469.826,13.34,0.013,333.4
2019-09-29T01:37:36,42.805,6.029,-0.006,0.02,-0.027,101.0,107.0,98.0,13.4,1505.4,327.7,-0.7,1.8,2469.833,13.34,0.02,343.3
2019-09-29T01:40:37,42.805,6.029,-0.007,0.03,-0.028,100.0,107.0,97.0,13.4,1505.4,324.8,-0.7,1.8,2469.845,13.34,0.03,346.9
2019-09-29T01:43:38,42.805,6.029,0.033,0.0,-0.002,100.0,107.0,98.0,13.4,1505.4,325.0,-0.7,1.8,2469.851,13.34,0.033,90.0
2019-09-29T01:46:39,42.805,6.029,-0.026,0.012,-0.038,100.0,107.0,97.0,13.3,1505.4,325.4,-0.7,1.8,2469.835,13.34,0.028,294.8
2019-09-29T01:49:40,42.805,6.029,-0.02,0.017,-0.035,100.0,106.0,99.0,13.4,1505.4,328.2,-0.7,1.8,2469.83,13.34,0.026,310.4
2019-09-29T01:52:41,42.805,6.029,-0.012,0.013,-0.052,100.0,106.0,97.0,13.4,1505.4,326.8,-0.7,1.8,2469.82,13.34,0.017,317.3
2019-09-29T01:55:42,42.805,6.029,0.009,-0.001,-0.048,98.0,108.0,98.0,13.4,1505.4,326.6,-0.7,1.8,2469.861,13.34,0.009,96.3
2019-09-29T01:58:43,42.805,6.029,-0.007,0.025,-0.036,100.0,106.0,97.0,13.4,1505.4,326.7,-0.7,1.9,2469.795,13.34,0.025,344.4
2019-09-29T02:01:44,42.805,6.029,0.006,0.0,-0.022,99.0,107.0,98.0,13.4,1505.4,327.0,-0.7,1.8,2469.883,13.34,0.006,90.0
2019-09-29T02:04:45,42.805,6.029,-0.002,0.022,-0.063,99.0,107.0,98.0,13.4,1505.4,325.7,-0.7,1.9,2469.904,13.34,0.022,354.8
2019-09-29T02:07:46,42.805,6.029,-0.03,0.032,-0.033,100.0,108.0,97.0,13.4,1505.4,327.1,-0.7,1.8,2469.848,13.34,0.043,316.9
2019-09-29T02:10:47,42.805,6.029,-0.022,0.018,-0.041,100.0,107.0,97.0,13.4,1505.4,326.2,-0.7,1.8,2469.835,13.34,0.028,309.3
2019-09-29T02:13:48,42.805,6.029,0.005,0.028,-0.053,100.0,106.0,98.0,13.4,1505.4,325.8,-0.7,1.8,2469.846,13.34,0.028,10.1
2019-09-29T02:16:49,42.805,6.029,-0.007,0.029,-0.04,99.0,106.0,98.0,13.3,1505.4,325.8,-0.7,1.8,2469.81,13.34,0.029,346.4
2019-09-29T02:19:50,42.805,6.029,-0.022,0.018,-0.058,100.0,107.0,98.0,13.4,1505.4,327.3,-0.7,1.8,2469.843,13.34,0.028,309.3
2019-09-29T02:22:51,42.805,6.029,-0.017,0.002,-0.06,99.0,106.0,97.0,13.4,1505.4,326.6,-0.7,1.8,2469.85,13.34,0.017,276.7
2019-09-29T02:25:52,42.805,6.029,-0.003,0.026,-0.021,100.0,107.0,97.0,13.4,1505.4,325.8,-0.7,1.8,2469.864,13.34,0.026,353.4
2019-09-29T02:28:53,42.805,6.029,-0.003,0.012,-0.041,100.0,106.0,98.0,13.4,1505.4,327.4,-0.7,1.9,2469.82,13.34,0.012,346.0
2019-09-29T02:31:54,42.805,6.029,0.015,-0.007,-0.053,101.0,106.0,98.0,13.3,1505.4,325.8,-0.8,1.8,2469.858,13.34,0.016,115.0
2019-09-29T02:34:55,42.805,6.029,0.003,0.047,-0.032,101.0,106.0,97.0,13.3,1505.4,326.3,-0.8,1.8,2469.866,13.34,0.047,3.6
2019-09-29T02:37:56,42.805,6.029,0.004,0.021,-0.015,99.0,106.0,97.0,13.4,1505.4,326.6,-0.7,1.8,2469.867,13.34,0.021,10.8
2019-09-29T02:40:57,42.805,6.029,-0.015,0.033,-0.019,100.0,107.0,97.0,13.3,1505.4,327.4,-0.7,1.8,2469.888,13.34,0.036,335.6
2019-09-29T02:43:58,42.805,6.029,-0.01,0.012,-0.057,100.0,106.0,98.0,13.4,1505.4,323.7,-0.7,1.8,2469.841,13.34,0.015,320.2
2019-09-29T02:46:59,42.805,6.029,0.017,-0.002,-0.024,99.0,107.0,97.0,13.4,1505.4,325.7,-0.7,1.8,2469.858,13.34,0.017,96.7
2019-09-29T02:50:00,42.805,6.029,-0.008,0.022,-0.046,100.0,107.0,98.0,13.4,1505.4,325.0,-0.8,1.8,2469.874,13.34,0.023,340.0
2019-09-29T02:53:01,42.805,6.029,0.001,0.036,-0.023,102.0,105.0,97.0,13.4,1505.4,325.3,-0.7,1.8,2469.85,13.34,0.036,1.6
